{"data":{"norad_id":46504,"intl_designator":"2020-068U","name":"NETSAT-4","alt_names":[],"object_type":"PAYLOAD","status":"ACTIVE","operator":null,"country":"GER","launch_date":"2020-09-28","launch_site_code":"PLMSC","launch_vehicle":null,"mission":null,"orbit_class":"UNKNOWN","rcs_meters":null,"size_class":null,"mass_kg":null,"dimensions":null,"purposes":["tech_demo"],"wikipedia_slug":null,"has_3d_model":false,"image_url":null,"decayed_at":null,"tle_current":{"epoch":"2026-09-19T23:40:32.438784Z","epoch_age_seconds":58714,"freshness":"FRESH","line1":"1 46504U 20068U   26262.98648656  .00014792  00000+0  29625-3 0  9994","line2":"2 46504  97.8613 279.0689 0004295   3.7171 356.4108 15.46852599330417","mean_motion":15.46852599,"eccentricity":0.0004295,"inclination_deg":97.8613,"raan_deg":279.0689,"arg_perigee_deg":3.7171,"mean_anomaly_deg":356.4108,"bstar":0.00029625,"rev_number":33041,"period_min":93.0922572022,"perigee_km":423.01765916104,"apogee_km":428.86236131283,"semimajor_km":6804.0770102369,"source":"CELESTRAK","updated_at":"2026-09-20T09:00:48.034220Z"}}}